Weather Roundup
Issued by NWS

Home | Current Version | Previous Version | Graphics & Text | Print | Product List | Glossary Off
Versions: 1 2 3 4 5 6 7 8 9 10 11 12 13 14 15 16 17 18 19 20 21 22 23 24 25 26 27 28 29 30 31 32 33 34 35 36 37 38 39 40 41 42 43 44 45 46 47 48 49 50

000
NZUS93 KARX 281010
HRRWXR

CURRENT HOURLY OBSERVATIONS ACROSS
MUCH OF THE UPPER MISSISSIPPI VALLEY
NATIONAL WEATHER SERVICE LA CROSSE WI
500 AM CDT SUN AUG 28 2016


...SOUTHEAST MINNESOTA...


CITY           SKY/WX    TMP DP  RH WIND       PRES   REMARKS
ROCHESTER      FOG       61  61 100 S5        30.14R VSB 1/4
ROCHESTER/MAYO PTSUNNY   62  63 100 SE3       30.14R VSB 1
WINONA         FOG       63  63 100 CALM      30.13R VSB 1/2
AUSTIN         FOG       61  61 100 CALM      30.12R VSB 1/4
ALBERT LEA     FOG       63  63 100 CALM      30.11S VSB 1/2
DODGE CENTER   FOG       59  57  94 SE3       30.13R VSB 1/2
PRESTON        FOG       62  61  96 SW3       30.14R VSB 1/4
OWATONNA         N/A     61  59  94 CALM      30.11R FOG
FARIBAULT      FOG       55  55 100 CALM      30.11R VSB 1/4
$$

...ELSEWHERE IN MINNESOTA...


CITY           SKY/WX    TMP DP  RH WIND       PRES   REMARKS
MINNEAPOLIS    FOG       61  60  97 E5        30.11R VSB 1/4
INTNL FALLS    FOG       55  54  96 SW5       30.06S VSB 3/4
DULUTH         CLOUDY    59  58  96 SW6       30.12R
RED WING       FOG       63  61  94 CALM      30.10S VSB 1/4
REDWOOD FALLS  CLOUDY    61  59  93 SE8       30.06S FOG
MANKATO        CLEAR     63  59  88 SE6       30.09S
WORTHINGTON    CLEAR     62  61  96 CALM      30.09R
FAIRMONT       FOG       59  59 100 S3        30.10R VSB 1/4
$$

...SOUTHWEST WISCONSIN...


CITY           SKY/WX    TMP DP  RH WIND       PRES   REMARKS
LA CROSSE      CLOUDY    67  67 100 S5        30.12R FOG
PRAIRIE DU CHI FOG       63  61  96 SE3       30.13R VSB 1/4
BOSCOBEL       FOG       63  63 100 CALM      30.13S VSB 1/4
LONE ROCK      FOG       63  62  97 CALM      30.14R VSB 1/4
PLATTEVILLE    CLEAR     63  63 100 CALM      30.15S
FORT MC COY    FOG       64  64 100 CALM      30.14S VSB 3/4
CAMP DOUGLAS   CLOUDY    66  66  99 W1        30.13S
MAUSTON-NEW LI CLOUDY    66  66  99 CALM      30.14R FOG
VIROQUA        CLOUDY    63  63 100 CALM      30.14S VSB<1/4
WIS DELLS      FOG       61  59  95 CALM      30.15R VSB<1/4
$$

...ELSEWHERE IN WISCONSIN...


CITY           SKY/WX    TMP DP  RH WIND       PRES   REMARKS
MILWAUKEE      PTCLDY    65  63  93 CALM      30.14R FOG
MADISON        FOG       65  65 100 CALM      30.14R VSB 1/4
GREEN BAY      CLOUDY    63  63 100 MISG      30.15R
EAU CLAIRE     CLOUDY    62  62 100 NE3       30.13R FOG
BLACK RVR FLS  FOG       66  66 100 CALM      30.13S VSB<1/4
MEDFORD        CLOUDY    60  60 100 W3        30.15R FOG
WAUSAU         MOCLDY    62  60  93 W5        30.14R
WIS RAPIDS     LGT RAIN  65  65 100 NW6       30.16R FOG
MARSHFIELD     FOG       63  60  90 CALM      30.15R VSB 1/4
RICE LAKE      FOG       60  58  96 CALM      30.15S VSB<1/4
$$

...NORTHEAST IOWA...


CITY           SKY/WX    TMP DP  RH WIND       PRES   REMARKS
WATERLOO       CLEAR     60  58  92 CALM      30.11R FOG
DUBUQUE        CLEAR     64  63  96 CALM      30.14S
DECORAH        FOG       61  61 100 CALM      30.12S VSB 1/2
MASON CITY     CLOUDY    60  59  96 S3        30.14R FOG
CHARLES CITY   CLOUDY    64  64 100 SE3       30.13S FOG
OELWEIN        CLEAR     61  59  94 SE5       30.13S FOG
$$

...ELSEWHERE IN IOWA...


CITY           SKY/WX    TMP DP  RH WIND       PRES   REMARKS
DES MOINES     PTCLDY    69  67  93 E3        30.08F
IOWA CITY      CLEAR     67  65  93 CALM      30.11S
FORT DODGE     CLEAR     64  63  94 E3        30.11R
MARSHALLTOWN   MOCLDY    62  62 100 E5        30.10S FOG
CEDAR RAPIDS   CLEAR     66  66 100 NE5       30.11R
$$

...NORTHERN ILLINOIS...


CITY           SKY/WX    TMP DP  RH WIND       PRES   REMARKS
CHICAGO-OHARE  PTCLDY    72  68  87 N6        30.14R
CHICAGO-MIDWAY PTCLDY    75  69  81 N5        30.14R
MOLINE         PTCLDY    69  67  93 E3        30.11S FOG
ROCKFORD       CLOUDY    68  66  93 E3        30.14S
PEORIA         CLEAR     72  72 100 CALM      30.12R
$$

NOTE: "FAIR" INDICATES FEW OR NO CLOUDS BELOW 12,000 FEET WITH NO
SIGNIFICANT WEATHER AND/OR OBSTRUCTIONS TO VISIBILITY. WIND
SPEEDS ARE IN MILES-PER-HOUR.




USA.gov is the U.S. government's official web portal to all federal, state and local government web resources and services.